EW6681 Weather Reports


Display with metric or nautical units.
time (UTC)temp
F
wind
direction
speed
MPH
gust
MPH
rain 1hr
in
rain 24hr
in
rain mn
in
humidity
%
barometer
mb
20260510060051 67 2 0.0 0.0 0.00 0.00 0.00 75 1010.2
20260510054546 68 2 0.0 0.0 0.00 0.00 0.00 75 1010.2
20260510053042 68 2 0.0 0.0 0.00 0.00 0.00 73 1009.8
20260510051540 68 2 0.0 0.0 0.00 0.00 0.00 72 1009.6
20260510050035 68 2 0.0 0.0 0.00 0.00 0.00 72 1009.4
20260510044535 68 2 0.0 0.0 0.00 0.00 0.00 72 1009.3
20260510043031 69 22 0.0 0.0 0.00 0.00 0.00 72 1009.2
20260510041531 69 22 0.0 0.0 0.00 0.00 0.00 71 1009.3
20260510040028 69 22 0.0 0.0 0.00 0.00 0.00 69 1009.0
20260510034525 70 45 0.0 0.0 0.00 0.00 0.00 68 1008.9
20260510033024 70 46 0.0 0.0 0.00 0.00 0.00 68 1008.9
20260510031525 71 57 0.0 0.0 0.00 0.00 0.00 67 1008.7
20260510030018 71 96 0.0 0.0 0.00 0.00 0.00 67 1008.5
20260510024517 71 99 0.0 0.0 0.00 0.00 0.00 66 1008.4
20260510023016 72 99 0.0 0.0 0.00 0.00 0.00 66 1008.2
20260510021517 72 96 0.0 0.0 0.00 0.00 0.00 66 1008.0
20260510020014 73 103 0.0 0.0 0.00 0.00 0.00 66 1007.8
20260510014517 74 96 0.0 0.0 0.00 0.00 0.00 64 1007.6
20260510013019 75 107 0.0 0.0 0.00 0.00 0.00 62 1007.5
20260510011519 76 118 0.0 0.0 0.00 0.00 0.00 60 1007.4
20260510010010 78 113 0.0 0.0 0.00 0.00 0.00 59 1007.2
20260510004510 79 114 0.0 0.0 0.00 0.00 0.00 57 1007.0
20260510003009 80 105 0.0 1.0 0.00 0.00 0.00 55 1006.7
20260510001509 80 118 0.0 2.0 0.00 0.00 0.00 53 1006.7
20260510000005 81 120 0.0 3.0 0.00 0.00 0.00 52 1006.6
20260509234517 82 113 0.0 1.0 0.00 0.00 0.00 50 1006.4
20260509233008 83 105 0.0 4.0 0.00 0.00 0.00 44 1006.3
20260509231504 83 92 0.0 1.0 0.00 0.00 0.00 41 1006.3
20260509230001 83 114 0.0 0.0 0.00 0.00 0.00 41 1006.3
20260509224501 83 123 0.0 0.0 0.00 0.00 0.00 38 1006.2
20260509223100 83 92 0.0 1.0 0.00 0.00 0.00 40 1006.3
20260509221600 83 136 0.0 0.0 0.00 0.00 0.00 40 1006.2
20260509220055 83 152 0.0 1.0 0.00 0.00 0.00 40 1006.1
20260509214552 83 5 0.0 1.0 0.00 0.00 0.00 39 1006.0
20260509213051 83 134 0.0 2.0 0.00 0.00 0.00 40 1006.2
20260509211558 83 113 0.0 7.0 0.00 0.00 0.00 39 1006.1
20260509210104 83 76 0.0 1.0 0.00 0.00 0.00 43 1006.3
20260509204543 83 44 0.0 2.0 0.00 0.00 0.00 43 1006.4
20260509203044 83 119 0.0 3.0 0.00 0.00 0.00 45 1006.6
20260509201550 82 115 0.0 3.0 0.00 0.00 0.00 45 1006.8
20260509200036 82 130 0.0 4.0 0.00 0.00 0.00 46 1006.9
20260509194531 82 146 0.0 0.0 0.00 0.00 0.00 49 1007.0
20260509193030 82 131 0.0 1.0 0.00 0.00 0.00 50 1007.1
20260509191527 81 101 0.0 0.0 0.00 0.00 0.00 49 1007.1
20260509190029 80 79 0.0 0.0 0.00 0.00 0.00 54 1007.3
20260509184529 80 83 0.0 0.0 0.00 0.00 0.00 57 1007.3
20260509183028 79 205 0.0 0.0 0.00 0.00 0.00 61 1007.5
20260509181518 79 213 0.0 1.0 0.00 0.00 0.00 63 1007.5
20260509180018 78 312 0.0 1.0 0.00 0.00 0.00 64 1007.7
20260509174509 78 95 0.0 2.0 0.00 0.00 0.00 67 1007.8
20260509173013 77 1 0.0 1.0 0.00 0.00 0.00 67 1008.0
20260509171503 76 276 0.0 0.0 0.00 0.00 0.00 68 1007.9
20260509170002 76 315 0.0 1.0 0.00 0.00 0.00 71 1007.9
20260509164527 75 241 0.0 3.0 0.00 0.00 0.00 73 1007.8
20260509163046 75 357 0.0 0.0 0.00 0.00 0.00 75 1007.7
20260509161524 74 307 0.0 0.0 0.00 0.00 0.00 78 1007.8
20260509160016 73 319 0.0 1.0 0.00 0.00 0.00 79 1007.7
20260509154513 72 312 0.0 1.0 0.00 0.00 0.00 80 1007.8
20260509153019 71 324 0.0 2.0 0.00 0.00 0.00 81 1007.8
20260509151540 71 354 0.0 0.0 0.00 0.00 0.00 82 1007.8
20260509150035 69 212 0.0 0.0 0.00 0.00 0.00 83 1007.8
20260509144531 69 245 0.0 0.0 0.00 0.00 0.00 84 1008.0
20260509143034 68 264 0.0 0.0 0.00 0.00 0.00 86 1008.0
20260509141527 67 280 0.0 0.0 0.00 0.00 0.00 86 1008.1
20260509140022 67 258 0.0 0.0 0.00 0.00 0.00 88 1008.2
20260509134515 65 222 0.0 0.0 0.00 0.00 0.00 89 1008.1
20260509133012 64 221 0.0 1.0 0.00 0.00 0.00 90 1008.1
20260509131508 63 225 0.0 0.0 0.00 0.00 0.00 90 1008.1
20260509130005 62 213 0.0 0.0 0.00 0.00 0.00 90 1008.1
20260509124602 61 212 0.0 0.0 0.00 0.00 0.00 91 1008.0
20260509123105 60 293 0.0 0.0 0.00 0.00 0.00 90 1007.8
20260509121600 59 293 0.0 1.0 0.00 0.00 0.00 90 1007.6
20260509120050 58 274 0.0 0.0 0.00 0.00 0.00 90 1007.4
20260509114557 58 275 0.0 0.0 0.00 0.00 0.00 89 1007.2
20260509113039 57 275 0.0 0.0 0.00 0.00 0.00 89 1007.1
20260509111537 57 273 0.0 0.0 0.00 0.00 0.00 89 1007.0
20260509110037 57 325 0.0 0.0 0.00 0.00 0.00 88 1006.8
20260509104533 58 325 0.0 0.0 0.00 0.00 0.00 87 1006.5
20260509103031 58 325 0.0 0.0 0.00 0.00 0.00 87 1006.4
20260509101530 58 325 0.0 0.0 0.00 0.00 0.00 87 1006.4
20260509100029 59 325 0.0 0.0 0.00 0.00 0.00 87 1006.5
20260509094627 59 325 0.0 0.0 0.00 0.00 0.00 86 1006.4
20260509093056 59 325 0.0 0.0 0.00 0.00 0.00 87 1006.5
20260509091559 59 325 0.0 0.0 0.00 0.00 0.00 86 1006.6
20260509090044 60 325 0.0 0.0 0.00 0.00 0.00 86 1006.6
20260509084524 60 325 0.0 0.0 0.00 0.00 0.00 86 1006.5
20260509083053 62 325 0.0 0.0 0.00 0.00 0.00 85 1006.5
20260509081547 62 288 0.0 0.0 0.00 0.00 0.00 86 1006.5
20260509080103 62 286 0.0 0.0 0.00 0.00 0.00 86 1006.7
20260509074545 62 282 0.0 0.0 0.00 0.00 0.00 86 1006.7
20260509073043 62 282 0.0 0.0 0.00 0.00 0.00 86 1006.8
20260509071542 62 273 0.0 0.0 0.00 0.00 0.00 85 1006.8
20260509070013 62 273 0.0 0.0 0.00 0.00 0.00 84 1006.6
20260509064512 63 273 0.0 0.0 0.00 0.00 0.00 84 1006.5
20260509063041 63 273 0.0 0.0 0.00 0.00 0.00 84 1006.6
20260509061537 63 263 0.0 0.0 0.00 0.00 0.00 84 1006.5